Theta_e
339 340 341 341 343 344 343 344 343 343 339 336 339 339 340 341 335 327 325 327 331 332 333 332 328 326 324 331 337 337 337 338 337 334 337 340 338 340 340 338 337 337 337 339 340 338 336 334 334 332 330 326 325 326 326 327 329 329 329 330 330 330 332 333 334 334 334 334 333 334 335 336 335 335 334 332 331 331 331 331 331 331 332 332 332
340 341 340 341 343 343 343 344 343 343 340 338 340 340 341 341 334 327 326 328 332 334 333 329 324 321 321 327 335 336 336 338 338 336 337 338 338 340 341 339 338 337 336 338 339 337 335 334 333 332 332 330 331 331 329 327 327 329 330 330 330 329 330 331 334 335 335 335 334 333 335 335 334 335 334 333 332 332 332 332 332 333 333 333 333
339 342 339 341 342 343 344 344 343 343 341 339 340 340 341 340 334 328 326 330 334 334 333 329 324 321 321 324 332 336 336 338 338 337 338 338 338 340 340 339 337 336 335 337 337 335 334 333 332 330 331 333 334 333 331 331 332 334 334 335 335 334 333 330 331 334 336 335 334 332 332 333 333 333 333 334 334 334 333 333 333 333 333 333 333
339 341 339 341 341 343 344 343 343 343 341 340 340 340 341 340 334 330 327 331 335 334 334 330 325 325 327 327 332 336 335 337 337 336 337 337 339 340 339 338 336 336 336 337 335 334 334 333 332 332 334 336 334 333 333 334 334 334 333 333 333 334 335 334 331 330 333 335 333 332 331 332 333 333 333 333 334 335 334 333 333 334 334 333 333
339 340 338 340 341 343 343 343 343 342 341 340 340 340 342 341 335 330 328 332 335 335 334 330 325 325 329 332 333 335 335 336 335 335 336 337 339 339 339 338 336 335 335 335 334 334 334 332 331 333 336 335 333 333 333 332 332 331 330 329 330 332 333 336 334 329 330 332 331 332 333 333 333 334 334 333 334 334 334 333 333 333 334 334 333
340 340 338 339 341 343 342 343 343 342 341 340 340 340 342 341 336 331 330 334 336 335 334 330 326 323 327 334 336 335 335 335 335 335 336 337 338 339 339 338 335 335 335 335 334 334 333 331 330 331 332 332 331 331 331 330 330 328 328 329 331 333 333 334 334 330 329 331 331 332 332 333 334 334 334 333 334 334 334 334 333 332 332 333 332
339 340 339 339 342 343 342 343 342 342 340 340 340 340 342 342 338 331 330 335 337 336 334 330 326 324 325 332 336 335 335 335 335 335 337 339 339 339 339 337 336 336 335 334 334 334 333 330 328 329 330 330 330 329 330 329 327 327 329 330 332 334 334 334 333 330 329 330 330 331 332 334 334 334 334 333 333 334 334 334 333 333 332 332 331
339 340 340 339 342 342 342 342 342 341 340 340 340 340 342 342 338 333 333 336 338 338 335 331 327 326 325 330 335 336 336 335 336 336 337 339 340 339 337 336 336 336 335 335 335 335 332 329 328 328 328 329 328 329 329 327 326 329 331 331 332 333 334 332 331 329 330 330 330 331 332 333 333 333 333 333 333 333 334 333 333 333 333 332 331
339 340 339 338 341 342 342 342 341 341 340 340 339 341 341 342 339 335 337 338 339 339 336 333 329 327 327 328 332 335 335 335 335 335 336 337 339 338 336 337 336 336 337 336 335 333 330 329 328 327 327 328 328 329 327 325 327 331 331 331 331 333 333 331 330 330 330 330 330 331 331 332 333 333 334 333 333 333 334 333 333 334 334 333 332
339 339 338 338 340 341 342 342 341 340 341 340 339 341 341 342 340 336 338 339 339 338 338 336 331 328 328 329 331 334 334 334 334 335 335 336 338 337 337 337 336 336 335 335 334 330 327 327 327 327 327 328 328 328 326 325 328 330 330 331 331 332 333 331 330 330 330 330 330 330 331 332 333 334 334 334 334 334 334 334 334 334 334 334 334
340 340 338 338 339 340 342 342 341 340 341 340 340 340 341 342 340 338 338 339 339 338 339 338 334 330 329 329 332 334 333 333 334 334 335 335 336 336 336 336 334 334 333 334 332 327 327 327 327 328 327 328 328 327 325 325 328 329 328 330 331 332 333 331 330 330 330 330 330 330 330 331 334 335 335 334 334 334 334 334 334 334 334 334 334
340 340 339 339 340 340 340 341 340 340 341 341 340 341 342 341 340 339 339 340 339 338 338 339 336 332 329 329 332 334 334 333 334 334 335 336 336 336 336 334 332 333 332 332 329 326 327 327 328 328 327 328 327 326 324 326 329 329 329 331 331 332 333 331 331 330 330 330 330 329 330 332 335 335 335 335 334 334 334 333 333 333 334 333 333
340 340 339 339 340 340 340 340 340 340 341 341 340 341 341 341 341 340 340 340 339 338 338 339 337 334 331 329 330 333 334 334 334 335 336 337 337 337 336 334 331 331 330 328 326 326 327 327 328 327 328 327 326 325 324 327 331 331 331 332 332 333 332 331 331 331 330 330 329 329 330 333 335 336 336 335 334 334 333 333 334 334 334 333 334
340 339 338 338 339 340 340 339 340 341 341 341 341 341 341 341 341 340 340 340 340 338 339 340 337 335 334 331 329 331 334 334 334 336 337 337 337 337 336 335 332 329 327 326 326 326 327 328 328 328 328 327 326 325 324 327 332 332 333 332 332 332 331 331 331 331 330 330 330 329 330 333 335 336 337 336 335 333 333 335 335 335 334 334 334
339 337 336 339 340 340 341 339 340 341 340 340 341 340 341 341 341 341 341 340 340 339 339 339 337 336 335 334 329 327 330 334 335 336 337 337 337 337 336 335 332 328 325 325 326 326 327 328 328 328 327 327 326 325 324 327 331 333 333 333 332 332 332 332 332 331 330 330 330 330 332 335 335 336 336 336 335 333 334 335 336 335 335 334 334
338 336 337 340 340 341 341 339 340 341 341 341 341 341 341 341 341 341 341 340 340 339 339 338 337 337 336 335 331 326 326 330 335 336 336 336 336 336 336 335 332 327 324 325 326 326 327 328 328 327 327 327 326 325 324 327 331 333 334 334 333 333 333 334 333 331 331 331 331 331 332 334 335 335 335 335 335 334 335 336 336 335 335 334 334
339 338 339 341 340 340 340 340 340 341 341 341 341 341 340 341 341 340 341 340 340 339 339 338 337 336 335 334 331 327 324 326 332 335 336 335 334 334 335 335 332 328 325 325 326 326 327 327 327 327 327 327 326 325 324 326 330 332 334 334 334 334 334 334 333 332 331 331 331 331 332 334 334 335 335 336 335 335 335 335 335 335 334 334 333
339 339 341 340 340 340 340 340 341 341 341 341 341 341 340 341 340 340 340 340 340 339 338 338 336 335 334 333 331 328 325 324 328 332 334 334 333 334 335 335 333 329 325 326 327 326 327 326 326 327 327 327 326 325 324 326 329 332 334 334 335 335 334 335 334 332 332 331 332 333 334 335 335 336 336 336 336 335 335 335 335 334 334 334 333
339 340 341 340 340 340 340 341 341 341 341 341 340 341 341 341 340 340 340 339 339 338 338 337 335 335 334 334 332 330 327 327 329 331 333 334 332 334 335 335 335 331 326 327 327 327 327 326 327 327 327 327 326 323 323 326 328 331 333 335 335 335 335 335 334 332 332 333 334 334 335 336 336 336 336 336 336 335 335 335 334 334 333 333 332
339 339 340 340 340 340 340 341 341 340 340 341 340 341 341 340 340 341 340 339 339 338 337 336 334 334 334 333 333 332 329 328 330 332 334 334 333 334 334 335 335 332 328 328 328 327 327 327 327 327 327 325 323 322 322 326 328 329 332 335 335 336 336 335 334 333 333 334 334 334 335 336 336 335 336 336 336 335 335 334 334 333 333 332 331
339 339 340 339 339 340 340 340 340 340 340 340 340 341 341 341 341 341 340 339 339 338 336 335 333 333 332 332 333 333 331 328 328 330 333 334 334 334 334 335 335 332 329 328 328 327 327 327 327 327 325 323 321 322 324 327 329 330 331 334 335 336 336 335 335 334 334 335 334 334 335 335 336 336 336 336 335 335 334 334 334 333 332 332 330
339 339 340 339 339 340 339 339 339 340 340 340 340 340 340 341 341 340 340 339 339 337 335 334 334 332 331 332 332 331 328 326 327 327 330 334 333 333 334 334 333 331 329 329 328 327 328 328 327 325 322 321 320 322 328 330 331 332 331 333 334 335 336 336 335 334 334 335 335 335 335 335 336 336 335 335 335 334 334 334 333 332 332 330 329
339 338 339 338 338 339 339 339 339 340 339 340 340 341 341 341 341 340 340 339 337 333 331 332 330 328 326 327 328 327 323 322 327 327 327 329 328 329 331 331 331 330 329 329 329 328 328 326 324 321 320 321 321 325 331 332 333 334 332 332 333 334 335 336 335 334 334 335 335 335 335 336 336 335 335 335 334 334 333 333 332 331 330 329 328
339 338 338 338 338 338 338 338 340 340 339 340 340 340 340 341 340 339 340 338 333 328 324 324 321 318 316 316 318 321 319 318 326 330 328 326 324 325 328 330 330 329 329 330 329 328 326 323 321 320 321 324 326 329 333 333 333 334 333 332 333 335 336 335 335 334 334 335 335 335 335 335 335 335 335 334 334 333 333 333 332 330 328 328 324
338 338 337 337 338 338 337 339 340 339 339 339 340 340 340 341 340 338 339 336 330 325 320 315 312 311 311 311 311 314 316 315 322 329 328 324 323 324 327 329 330 329 329 328 326 325 322 320 321 324 327 329 332 332 333 334 334 334 334 333 334 335 336 335 334 334 334 335 335 334 335 335 335 334 334 334 333 333 332 332 330 328 328 324 313
337 338 337 336 337 336 336 338 340 340 339 339 340 340 340 341 339 338 338 334 329 323 314 309 310 314 316 315 313 312 314 316 318 323 323 322 323 323 324 326 326 326 326 325 324 323 322 323 326 331 333 333 334 334 334 334 334 335 334 334 335 336 336 335 334 333 333 334 334 334 334 334 334 334 333 332 332 332 331 330 329 327 323 314 303
337 337 336 337 336 335 336 338 339 339 339 339 340 340 340 340 339 338 336 331 328 320 309 311 320 326 327 324 320 315 315 317 317 319 320 321 322 322 323 323 323 324 323 323 323 322 325 329 332 335 335 334 335 334 335 334 334 335 335 335 335 336 335 334 332 331 332 332 333 333 332 332 331 331 331 331 331 331 330 329 326 321 314 306 301
337 337 337 337 336 335 335 337 338 338 338 339 340 340 340 339 338 337 335 330 326 314 308 322 332 334 335 333 330 326 322 319 318 318 319 321 322 322 323 322 323 323 322 322 323 325 329 333 335 336 336 335 334 334 335 335 334 334 334 335 335 336 335 333 330 328 328 328 328 327 327 327 327 326 327 329 328 328 326 323 318 312 307 304 303
336 337 337 337 336 336 335 336 337 338 338 338 340 340 339 337 337 337 334 330 323 309 311 329 336 336 337 336 335 335 332 328 324 321 318 318 320 320 321 322 322 322 321 322 327 331 334 335 336 336 336 335 334 334 335 335 335 334 334 334 335 335 334 330 327 325 325 325 324 323 323 323 322 320 318 320 322 321 319 316 314 312 311 309 306
336 336 337 336 336 335 335 335 336 337 338 339 339 340 339 337 336 336 332 329 321 307 312 330 336 336 337 337 337 337 337 336 334 331 326 323 322 319 319 319 320 320 321 326 332 335 336 336 336 336 336 336 335 334 335 335 335 334 334 334 335 335 332 328 326 324 324 324 324 323 322 320 318 315 312 312 313 314 313 314 315 315 315 314 312
336 336 336 336 336 335 335 335 336 338 339 339 339 339 339 336 335 335 332 330 320 310 317 331 336 336 337 337 337 337 337 337 338 337 334 333 332 329 326 325 324 324 327 332 335 336 336 337 336 337 337 336 334 334 334 334 335 334 333 334 335 334 330 327 325 325 325 325 324 323 320 317 315 313 310 309 309 310 313 316 316 316 316 316 316
335 336 336 336 336 335 335 335 337 338 339 339 338 339 338 335 335 334 332 331 321 316 326 333 335 336 337 338 338 337 338 337 338 338 337 336 337 337 336 335 334 334 335 336 337 336 337 336 336 337 336 335 334 334 332 332 334 334 334 334 335 333 328 326 325 325 325 324 323 321 319 316 313 310 308 307 310 315 318 318 318 317 316 316 316
335 335 335 336 336 336 334 335 337 337 338 338 338 338 337 335 335 333 332 333 324 320 331 336 335 336 336 337 338 337 337 338 338 338 338 338 337 338 339 339 338 338 338 337 337 336 336 336 336 336 335 334 334 333 332 332 333 333 334 335 335 332 327 325 325 325 325 323 321 319 316 313 310 307 305 305 307 314 318 318 318 318 316 315 314
336 335 335 335 336 336 335 336 337 337 338 338 338 337 336 335 335 334 332 333 327 319 328 335 334 335 335 336 337 337 338 338 338 338 339 339 338 338 339 339 338 338 337 337 336 336 336 336 335 335 334 333 333 333 331 332 333 333 334 335 335 331 327 325 324 324 324 322 319 315 312 309 306 305 304 304 305 309 314 316 317 316 316 315 314
336 335 335 334 335 336 335 335 336 337 338 337 338 336 336 336 335 335 332 334 330 317 320 331 334 335 336 336 337 337 338 338 338 339 339 339 339 339 338 338 338 337 337 336 336 336 336 335 334 335 334 332 332 331 331 332 333 333 335 335 334 330 326 324 323 323 321 318 315 311 308 305 303 303 303 303 303 306 311 314 314 314 314 313 313
336 335 335 334 335 335 334 335 336 337 337 337 337 336 337 337 335 335 332 334 330 318 321 331 334 335 336 337 337 337 338 338 338 339 339 340 339 339 338 338 337 337 336 336 336 336 335 334 334 334 333 331 329 330 331 332 333 333 334 334 332 328 325 324 323 321 318 315 312 309 306 303 301 301 300 301 302 307 311 312 313 313 313 313 312
337 336 335 334 334 335 334 334 333 334 337 337 336 337 338 338 336 334 334 334 328 319 325 333 334 335 336 337 337 337 337 338 338 339 340 339 338 338 338 338 337 336 336 336 335 335 335 334 333 332 332 331 329 330 331 332 333 333 333 333 330 325 325 325 322 319 315 312 310 307 304 302 301 299 298 299 301 304 308 309 309 309 308 310 311
338 337 336 335 335 335 336 335 333 334 337 337 337 338 339 339 338 335 334 335 329 321 325 332 333 335 335 336 337 337 338 338 338 339 339 339 338 339 338 337 337 336 336 336 335 335 334 334 334 331 330 330 329 329 331 332 333 332 333 331 327 324 324 323 318 315 313 310 309 307 304 303 302 301 300 300 299 300 302 303 304 303 302 304 307
339 338 337 336 336 336 337 337 336 336 338 338 338 339 340 340 339 336 336 336 333 329 330 333 335 336 336 337 337 337 338 338 339 339 339 339 338 338 338 337 336 336 336 335 335 334 333 333 334 332 328 327 328 328 330 332 332 332 331 327 324 323 321 317 314 312 311 309 308 307 305 304 303 303 303 302 301 299 299 300 300 301 300 300 302
339 339 338 337 337 337 337 338 339 338 339 340 340 341 341 341 340 338 337 338 337 336 336 337 337 338 338 337 336 337 337 338 339 339 339 338 338 338 337 336 336 336 336 335 334 334 333 333 334 333 329 325 326 328 328 330 331 328 325 324 322 320 316 313 311 310 309 308 308 307 305 304 304 304 304 304 303 300 299 299 299 300 300 300 301
340 339 339 338 337 337 338 339 339 339 340 341 342 341 341 341 341 339 338 338 339 339 339 339 339 339 338 337 336 336 337 338 339 338 338 338 337 337 337 336 336 336 336 335 334 334 333 333 333 333 330 324 323 326 327 328 326 320 317 318 316 314 312 311 310 309 309 308 308 307 306 305 305 305 304 304 304 302 300 300 300 300 300 300 301
340 339 339 338 337 338 338 339 339 340 340 341 341 342 342 342 341 339 338 339 339 339 339 339 339 338 337 336 337 336 337 338 338 337 338 338 337 336 336 336 336 336 336 334 334 334 333 332 333 331 327 324 323 323 323 324 320 313 311 311 310 310 309 309 309 309 308 308 308 307 306 305 305 305 305 304 304 304 302 300 300 300 300 301 301
340 340 339 338 337 338 338 339 339 340 340 340 341 341 341 342 341 339 338 339 340 340 340 340 339 337 336 336 336 336 337 338 338 337 337 338 337 336 336 336 336 336 335 334 333 334 333 332 332 331 326 322 321 320 320 321 318 313 312 314 314 312 311 308 308 308 308 308 308 307 306 305 305 305 305 305 304 303 302 301 300 300 301 301 301
339 339 339 338 337 337 339 339 339 340 340 340 340 341 341 342 341 340 340 340 340 340 340 340 338 336 336 336 336 337 338 338 337 337 337 337 337 336 336 336 335 335 335 334 333 333 333 332 331 332 328 323 320 319 319 321 320 317 317 318 315 316 319 314 307 307 308 308 307 307 307 306 305 305 304 305 304 302 301 301 301 301 301 301 302
339 340 339 338 337 338 338 339 339 340 340 340 340 341 341 342 342 341 340 340 339 339 339 337 337 336 336 336 336 337 338 338 337 337 337 337 336 336 336 336 335 335 334 334 333 332 332 332 331 331 330 327 323 319 318 320 321 321 321 321 318 321 325 316 308 308 307 307 308 306 306 306 305 305 304 304 303 302 301 301 301 301 302 302 302
339 340 340 339 337 337 338 339 339 340 340 340 340 341 341 341 341 340 339 339 338 338 337 336 336 336 336 336 336 337 337 338 338 337 338 337 336 336 336 336 335 335 334 333 333 332 332 332 331 331 330 330 327 322 319 320 321 321 321 323 322 325 323 313 311 313 308 306 308 307 306 306 305 305 304 303 303 302 301 301 302 301 301 302 303
340 340 340 339 337 337 338 338 339 339 340 340 340 341 341 341 341 340 339 339 338 337 337 337 337 336 336 336 336 337 338 338 338 338 338 337 336 336 336 336 335 334 334 333 332 332 332 331 331 331 330 330 329 325 321 321 322 321 320 321 321 322 321 315 314 316 313 309 307 306 307 306 305 305 304 304 303 302 301 301 302 302 302 303 303
340 340 339 338 338 337 337 338 339 339 339 340 341 341 341 341 341 340 340 339 338 338 337 337 337 336 336 336 337 337 338 338 338 338 338 337 336 336 336 335 334 334 333 332 331 330 330 330 330 330 330 329 329 328 325 322 323 322 321 320 321 321 321 320 318 318 318 316 310 306 306 306 306 306 305 304 303 303 302 301 302 302 303 303 302
340 339 339 339 338 337 337 338 338 339 339 340 340 340 341 340 340 340 339 339 338 338 337 337 337 336 336 336 337 337 338 338 338 338 337 337 336 336 335 334 334 333 332 331 331 330 329 329 329 328 328 329 328 328 327 325 324 324 322 321 320 320 319 319 318 315 315 317 315 309 306 306 306 306 305 304 304 303 302 302 303 303 303 302 301
341 339 339 339 338 336 336 337 338 339 339 340 340 340 340 340 340 339 339 338 338 337 337 337 336 336 337 337 338 338 338 338 338 338 337 336 335 335 335 334 334 333 333 332 330 329 328 328 328 328 328 328 328 327 327 327 326 325 324 323 321 318 317 314 313 313 311 312 314 310 306 305 305 305 305 305 305 304 302 302 303 303 302 302 301
340 339 339 338 337 336 336 337 338 338 339 339 340 340 340 340 339 339 339 338 337 337 337 337 337 337 337 337 338 338 338 338 338 337 336 335 335 335 334 334 333 333 332 331 330 328 327 327 327 327 327 327 327 326 326 327 327 325 324 324 323 321 320 318 316 315 312 310 313 312 306 304 303 303 304 305 304 303 303 303 303 302 301 301 301
Wind_Speed
25 27 25 24 22 20 19 18 18 17 18 18 19 19 19 19 21 21 20 20 19 18 17 16 14 13 13 14 15 15 14 14 13 14 14 12 11 13 13 12 11 12 13 13 11 11 12 13 14 14 15 17 18 18 18 18 17 17 17 16 15 15 14 14 14 15 15 15 15 15 15 15 15 15 15 16 17 18 17 16 15 15 15 14 13
27 27 26 24 23 20 19 18 18 17 18 19 19 19 19 20 21 21 19 19 18 17 17 16 14 13 12 14 17 17 15 14 13 14 14 12 11 13 14 12 11 11 13 13 11 12 13 13 14 15 16 17 17 16 17 17 17 17 17 16 15 14 14 13 14 14 14 14 14 15 15 14 15 14 14 14 16 17 16 16 15 15 14 13 13
26 27 27 24 23 21 20 18 18 17 18 19 19 19 19 20 21 20 19 18 17 17 17 16 15 14 13 15 18 17 16 15 14 14 14 12 11 13 13 11 10 10 12 13 12 13 13 13 14 15 16 16 15 16 16 16 16 15 14 13 12 12 11 12 12 13 13 13 14 15 15 14 14 14 13 14 15 15 15 15 15 14 13 13 13
27 28 26 24 23 21 20 19 18 17 18 18 19 19 19 19 21 20 19 18 17 17 17 17 16 15 15 16 18 18 17 16 15 15 16 13 11 13 12 11 10 11 13 13 13 13 12 13 14 15 15 14 15 15 15 14 13 12 11 10 8 8 8 9 10 11 13 13 14 15 16 15 14 14 13 14 14 13 14 14 14 13 13 13 13
28 28 26 25 23 23 21 20 19 18 18 18 19 19 18 18 20 20 19 18 17 17 17 17 16 17 17 17 18 18 17 17 16 15 17 15 12 13 12 11 11 13 13 13 13 13 12 13 14 14 13 13 14 14 14 13 12 11 10 8 7 6 6 7 7 10 12 13 15 15 15 14 14 14 13 13 13 13 13 13 14 13 13 12 13
28 29 27 26 24 24 22 21 20 18 18 18 19 19 18 17 19 19 18 17 17 17 17 17 17 18 19 19 18 17 17 16 17 17 18 15 12 13 12 11 12 13 13 13 13 12 12 12 13 13 13 13 14 13 13 12 11 10 9 8 8 8 7 8 9 9 11 13 14 14 14 13 14 13 12 12 12 13 13 13 13 13 13 13 12
29 29 27 26 26 24 22 22 20 19 19 19 19 19 18 16 18 18 18 16 16 17 16 16 17 18 19 20 18 18 17 15 17 19 19 15 14 14 13 12 13 13 13 13 12 11 12 13 13 13 13 13 13 13 13 12 11 10 9 8 9 9 9 11 12 11 11 13 13 14 14 13 13 13 12 12 12 13 13 13 13 13 13 13 13
29 29 27 27 27 25 23 23 21 20 19 19 20 19 18 16 17 18 16 15 15 16 15 16 17 17 19 19 19 17 17 18 18 18 18 16 16 14 13 14 13 13 13 12 11 11 12 12 13 13 13 12 12 12 12 11 11 10 9 8 9 9 10 13 14 13 12 13 13 13 13 13 12 12 12 12 12 12 12 12 12 12 13 13 13
29 29 28 28 27 25 24 23 21 20 20 20 20 20 18 16 17 17 16 15 15 14 14 15 16 16 17 18 19 18 19 20 19 17 15 15 17 14 13 14 14 14 13 11 11 11 12 13 13 13 13 12 11 12 11 11 11 10 9 9 8 8 11 14 15 14 13 13 13 13 13 13 12 12 11 12 12 12 12 12 12 12 12 12 12
29 28 28 29 27 25 24 23 21 20 20 20 20 20 19 17 16 16 16 15 14 14 14 13 15 16 16 18 20 20 20 20 19 16 14 16 18 15 14 15 14 13 12 11 10 11 13 13 13 13 12 11 11 12 11 11 11 10 8 9 9 9 12 15 15 14 13 13 13 13 12 12 12 11 11 12 13 12 12 11 11 11 11 11 11
28 27 28 29 27 25 24 24 22 21 20 20 20 20 19 17 16 16 15 14 13 14 13 12 13 15 16 18 20 20 20 20 19 16 15 16 17 15 14 14 14 12 11 10 10 12 12 13 13 12 11 11 11 11 10 10 11 9 8 10 10 10 13 15 14 13 13 12 12 12 12 12 12 10 10 12 12 12 12 11 11 11 10 10 10
27 27 28 28 27 24 24 24 22 21 20 19 19 19 18 17 15 15 14 13 13 13 13 11 11 14 15 17 18 19 19 20 19 16 14 14 15 15 14 12 13 12 11 11 11 12 12 13 13 11 11 10 11 11 10 10 10 9 9 10 12 13 14 13 13 13 12 11 11 11 11 11 11 9 9 10 11 11 11 11 10 10 10 10 10
25 26 28 28 26 25 25 24 22 21 20 19 19 19 18 17 15 14 14 13 13 13 13 11 10 11 14 15 17 19 19 20 19 16 13 13 15 14 13 11 11 11 11 11 12 12 12 12 12 11 10 10 10 10 10 10 10 10 9 10 13 15 14 13 12 11 11 10 10 9 10 11 10 8 8 9 10 10 10 10 9 9 9 10 10
25 27 28 27 26 25 25 26 24 21 21 20 19 19 18 17 15 15 14 13 12 12 12 11 10 10 12 13 15 18 19 20 19 17 14 14 14 13 12 11 10 10 10 11 12 12 12 12 11 10 9 9 9 10 10 10 10 10 10 11 13 15 14 12 11 10 10 9 9 9 10 11 9 7 8 8 9 10 9 9 9 9 9 11 11
26 28 29 26 25 24 23 25 23 21 21 20 20 20 18 17 16 15 14 13 12 12 11 10 10 9 10 9 11 15 18 19 19 17 16 14 13 12 11 10 10 9 10 11 12 12 12 11 10 9 9 8 9 10 10 10 10 11 11 11 12 13 12 11 10 9 9 8 8 8 9 10 8 7 7 7 8 9 8 8 8 10 11 11 11
26 27 28 27 26 25 23 23 22 22 21 21 21 20 19 18 17 16 14 13 12 11 10 9 9 9 8 7 8 12 16 19 19 17 16 14 12 11 9 9 9 9 10 11 12 12 11 11 9 8 8 7 8 9 10 9 9 11 11 11 11 11 10 9 9 8 8 7 8 8 9 10 8 7 6 6 7 8 7 8 10 10 11 11 11
25 26 28 27 27 25 24 23 21 21 21 20 20 20 20 19 17 16 14 13 12 11 10 9 8 7 7 6 6 10 14 17 17 15 15 14 12 10 9 8 8 9 10 11 11 11 11 10 9 7 7 7 7 8 9 9 9 10 10 11 10 10 8 7 7 7 7 8 8 9 10 9 8 7 6 6 7 7 7 9 11 11 11 12 13
25 26 27 27 28 26 24 24 22 21 21 20 19 19 18 18 17 15 14 13 12 11 10 8 8 7 7 6 5 8 12 15 15 14 13 12 11 10 8 8 7 8 10 11 11 11 10 9 8 6 6 6 6 8 9 9 9 9 9 9 9 8 6 6 6 7 8 8 9 9 9 8 8 7 7 7 7 8 9 11 12 12 13 13 14
24 26 27 28 28 26 25 24 23 22 21 20 19 18 17 17 16 15 14 13 12 11 9 8 7 7 7 6 5 6 9 11 13 13 12 10 10 10 8 7 6 7 10 11 11 11 10 9 7 5 5 5 5 7 8 8 8 8 8 8 8 7 6 6 7 7 8 9 9 9 8 8 8 8 8 8 9 10 11 12 12 13 13 13 13
24 25 27 28 28 27 26 25 24 23 22 20 19 18 17 17 16 15 14 13 12 10 9 8 8 8 7 7 7 7 8 9 11 12 12 10 10 10 9 7 6 7 9 11 11 11 10 8 6 4 3 3 5 6 7 7 7 7 6 7 7 7 6 6 7 7 8 9 9 8 8 8 8 9 9 10 11 12 12 12 12 12 12 12 12
24 25 27 28 28 27 27 25 24 23 22 21 19 19 17 16 16 15 14 13 12 10 9 9 8 9 9 8 8 9 9 9 11 13 13 12 12 12 10 9 8 8 9 11 11 10 9 7 5 3 2 3 4 6 7 7 7 6 6 6 7 6 6 6 6 7 9 9 9 9 8 8 9 10 10 11 11 11 11 11 11 11 11 10 10
25 25 27 28 28 27 26 26 24 23 22 22 21 19 17 17 16 15 14 14 13 11 10 10 9 10 10 10 10 10 10 10 10 12 13 13 13 13 12 10 9 8 9 11 10 9 8 6 4 2 2 3 4 5 6 6 6 5 5 6 6 6 5 5 6 9 9 9 9 9 9 9 10 10 11 11 11 11 11 10 10 10 10 9 9
25 26 27 28 29 28 27 26 24 23 22 22 21 20 18 18 17 17 16 15 14 12 11 11 10 10 10 11 11 10 9 10 10 10 11 11 11 12 11 9 7 8 10 10 9 8 7 5 4 3 3 3 4 5 6 6 5 5 5 5 5 6 5 6 7 9 10 10 9 9 10 10 10 10 11 11 10 10 10 9 9 9 8 8 9
26 27 28 29 29 29 28 26 24 24 23 23 22 21 20 18 18 18 17 16 14 11 10 10 9 9 9 9 10 10 9 10 10 8 8 9 9 9 9 7 7 9 10 10 8 7 6 6 5 4 3 3 5 5 5 5 4 4 4 5 5 5 6 7 8 10 10 9 9 9 10 10 10 10 10 10 10 9 9 8 8 8 7 8 9
26 26 28 30 30 30 29 27 25 25 24 24 23 22 21 20 19 18 16 14 12 10 9 9 9 9 9 8 8 9 9 10 10 9 8 8 8 9 9 8 9 9 9 8 7 6 6 6 5 4 3 4 5 5 4 4 4 4 5 5 5 6 6 8 9 10 11 10 9 8 9 10 9 9 9 9 8 8 8 8 7 8 8 9 9
24 25 28 31 31 31 30 28 26 25 25 25 24 23 22 21 20 18 16 13 11 10 10 10 11 11 11 10 9 10 10 10 10 10 9 8 8 8 8 8 8 8 7 7 6 6 5 6 5 3 2 2 3 4 4 4 5 5 6 6 6 6 7 8 9 10 11 10 9 7 8 8 7 7 7 7 7 8 8 6 6 8 9 9 10
25 27 28 30 31 32 31 29 28 26 26 26 25 23 23 23 21 18 16 14 12 11 12 13 14 14 13 11 10 10 10 10 10 9 8 8 8 8 7 8 8 7 7 6 5 4 4 4 3 2 1 1 2 4 3 4 5 6 7 8 7 7 7 8 9 9 10 9 8 6 6 5 5 5 6 7 7 7 6 4 5 6 8 10 11
26 27 29 31 32 32 32 30 29 28 27 27 26 24 24 24 21 18 17 14 13 12 14 17 17 15 14 12 10 10 10 10 9 9 8 8 8 8 7 7 7 6 6 5 4 3 3 3 2 1 1 1 2 3 4 4 5 6 7 8 8 7 8 9 9 9 9 8 8 6 6 6 5 5 6 7 5 5 5 5 6 8 10 12 13
26 28 30 32 32 32 32 31 30 29 28 28 27 25 25 24 22 20 18 16 14 14 17 18 17 15 14 12 11 10 9 8 8 8 8 8 8 8 7 7 7 6 5 4 4 3 2 2 1 1 0 0 1 3 4 4 5 6 7 8 9 8 9 9 9 9 8 8 8 7 6 6 6 6 6 6 5 5 7 8 10 11 12 13 14
30 30 31 33 34 33 33 32 31 30 30 29 28 26 25 24 23 21 19 17 16 16 19 19 17 16 14 12 12 10 9 8 7 7 6 6 6 6 7 6 6 6 5 5 4 3 2 2 2 1 1 1 3 4 5 5 6 8 7 8 9 9 10 10 9 9 8 7 6 6 6 6 6 6 6 6 6 7 9 10 12 13 14 14 14
30 29 31 33 34 35 33 32 32 30 30 30 29 27 26 25 24 22 20 18 17 19 20 20 18 16 14 12 12 11 9 8 7 6 6 5 5 5 5 5 5 6 5 5 4 3 3 3 2 2 3 3 4 6 6 7 9 9 9 9 10 10 11 10 10 9 7 6 5 5 6 6 6 5 6 6 7 8 10 12 13 14 14 14 14
29 30 32 32 33 35 34 32 32 30 29 30 29 27 26 25 24 23 21 18 18 20 22 20 18 15 13 12 12 11 10 8 8 7 7 6 5 5 5 5 6 6 6 5 4 4 4 3 3 3 3 4 6 7 8 9 10 11 11 11 11 12 12 11 9 8 6 5 5 5 5 5 5 5 5 7 8 11 12 12 13 14 14 15 15
29 31 32 32 33 34 34 32 32 31 30 30 29 27 27 25 24 23 21 19 19 22 23 20 18 15 14 13 12 11 10 9 9 8 7 7 7 6 6 6 7 7 7 6 5 4 4 3 3 4 4 5 6 8 9 10 11 12 12 12 13 12 12 11 9 7 5 4 4 4 4 4 4 4 5 7 8 11 12 12 13 13 14 14 15
30 30 31 32 34 34 34 32 32 32 30 30 29 27 27 25 23 23 21 20 19 22 24 21 18 16 15 15 13 12 11 11 10 9 8 8 8 8 8 8 8 7 7 6 5 5 4 4 5 6 6 6 7 8 10 12 13 13 13 13 13 13 12 12 10 7 5 4 4 4 4 4 4 5 6 8 9 10 12 13 12 12 12 13 14
30 30 32 32 33 34 34 33 31 32 30 30 30 28 26 25 24 23 22 21 20 22 24 22 20 17 16 15 14 13 12 11 11 10 9 8 9 10 10 8 8 7 6 6 5 6 6 6 7 8 8 8 8 8 10 13 14 14 14 14 14 14 13 12 10 7 5 5 5 5 5 5 5 5 6 8 9 10 11 12 12 12 12 12 12
32 31 32 31 32 34 35 34 32 32 32 31 31 28 26 24 24 23 23 21 21 23 24 23 21 18 17 16 15 14 13 12 12 11 9 9 10 10 9 8 8 7 7 6 7 7 7 8 9 9 9 10 9 9 10 13 15 15 15 15 15 15 14 11 8 7 6 5 6 6 6 7 7 7 7 8 9 10 10 10 10 11 11 11 11
32 31 32 31 31 32 33 34 34 34 33 32 31 28 26 24 24 24 23 22 22 24 25 24 21 19 18 17 16 15 14 13 12 11 11 10 10 10 9 9 9 7 7 7 8 9 9 10 10 9 9 9 10 11 12 14 15 15 16 16 16 15 13 10 8 7 6 6 6 6 7 8 8 9 9 9 9 9 8 7 8 9 10 10 9
31 31 32 32 32 31 31 33 34 35 34 33 31 28 26 25 24 24 24 23 23 24 25 24 22 20 19 18 18 17 16 14 13 13 12 11 10 9 9 9 10 9 9 9 10 10 10 11 11 11 10 10 11 12 13 15 16 16 16 16 16 15 11 9 8 6 6 6 6 6 7 8 9 10 11 12 11 9 8 7 8 9 10 10 9
29 29 30 32 32 31 31 31 32 34 34 33 32 29 27 26 25 25 25 24 24 24 24 24 22 20 19 19 19 19 17 15 14 14 12 11 10 10 10 10 11 10 11 12 12 12 12 12 12 12 12 11 12 14 15 17 17 16 16 17 16 13 11 9 8 7 7 7 6 6 7 8 9 10 11 12 12 12 11 11 11 12 13 13 12
27 28 29 31 32 32 31 31 32 34 34 33 32 31 30 29 28 27 27 27 26 26 25 23 22 21 20 19 20 19 18 16 15 14 13 11 10 10 11 11 12 12 13 14 14 13 14 14 12 13 14 14 15 16 16 18 18 17 15 16 14 11 9 9 8 8 8 7 6 6 6 7 8 8 8 10 10 11 12 12 13 13 13 13 13
28 29 30 32 33 33 33 33 33 34 35 34 33 33 33 32 31 31 31 29 28 27 25 24 22 20 20 20 21 20 19 18 16 14 13 11 10 11 12 12 13 14 15 14 14 14 14 14 13 14 15 17 19 18 19 20 19 16 12 11 10 10 9 10 10 9 9 8 7 6 6 6 6 6 6 7 7 8 9 11 12 12 11 11 11
32 31 31 32 33 34 35 35 35 36 36 35 33 32 33 33 31 31 31 30 29 28 26 24 21 19 20 21 21 21 20 18 16 14 13 11 11 12 12 13 14 16 16 14 14 15 15 15 15 16 17 18 20 21 22 19 16 15 14 10 7 7 8 9 10 10 10 9 7 6 5 5 5 4 5 5 5 6 6 8 10 10 10 9 9
33 32 32 32 34 35 36 37 37 37 38 37 35 33 32 31 29 29 30 29 28 27 25 22 20 20 21 22 22 22 20 18 16 14 13 12 12 12 13 14 15 16 16 15 15 16 17 16 16 16 18 19 19 22 23 17 13 16 15 7 3 4 4 6 8 10 10 10 8 7 5 4 4 3 4 3 3 3 4 6 8 8 7 7 7
31 34 34 35 36 38 38 38 38 38 39 39 36 34 31 29 28 27 28 28 26 25 24 22 22 22 23 24 23 22 20 18 16 14 14 13 12 13 13 15 16 16 17 16 17 17 17 17 17 17 17 19 20 23 24 17 14 15 9 3 2 3 1 4 7 9 10 10 9 8 6 5 4 4 4 3 2 1 2 5 6 5 5 5 6
33 36 38 39 39 39 39 38 38 38 39 39 37 34 31 30 28 25 25 26 24 24 25 24 25 25 25 25 24 22 20 19 17 16 14 13 13 14 14 16 16 16 16 16 16 17 17 17 18 18 18 19 20 23 24 18 14 15 8 3 3 1 1 4 6 6 9 10 10 9 8 6 5 4 4 3 1 1 3 5 5 3 2 3 5
35 39 41 40 38 37 37 37 38 38 38 38 37 34 33 32 31 28 27 26 24 25 28 28 27 27 26 25 23 22 21 20 18 17 15 14 14 14 15 16 17 17 17 16 15 16 17 18 18 19 19 19 19 22 25 21 15 15 11 5 3 2 3 7 5 2 6 9 10 10 9 8 7 6 4 4 2 2 4 5 4 2 1 3 5
38 40 39 38 37 37 37 38 38 38 38 37 37 35 34 34 34 33 31 29 27 26 27 28 28 27 26 25 24 23 22 20 19 17 15 15 15 15 16 17 17 17 17 16 16 16 17 18 18 19 19 19 20 21 25 23 18 16 14 8 5 3 5 7 4 2 3 6 9 11 11 10 9 7 5 4 2 1 3 3 3 1 1 3 4
40 38 37 38 40 39 39 40 39 38 38 37 37 38 37 36 36 34 33 32 30 26 25 26 27 26 25 24 24 23 22 21 19 18 16 15 16 17 17 17 17 17 17 17 17 16 16 17 19 19 19 20 21 21 22 25 22 18 16 12 7 5 7 7 6 6 3 2 5 8 11 12 11 10 7 5 4 3 3 3 2 1 2 2 1
37 35 39 41 40 39 38 39 39 38 38 38 38 39 39 38 37 35 33 31 29 26 25 26 26 26 26 25 24 24 23 22 20 18 17 16 17 17 18 18 18 17 17 17 17 16 17 18 19 20 20 20 20 20 20 22 24 21 18 15 10 8 9 7 8 8 4 2 3 3 8 11 10 11 10 7 5 4 4 2 1 1 1 1 2
33 33 36 36 35 36 37 38 40 38 38 39 39 40 40 38 38 37 34 30 27 26 26 26 27 27 26 26 26 25 24 23 21 19 17 17 18 18 19 19 18 18 18 17 17 17 17 18 18 19 19 19 19 19 19 19 21 22 20 18 15 12 9 6 8 10 5 3 2 3 9 12 9 10 11 9 6 4 3 2 1 1 2 2 1
29 30 31 31 33 35 37 39 39 38 39 40 40 41 41 40 39 38 35 32 29 28 28 28 28 28 28 28 27 26 25 23 22 20 19 18 19 19 19 19 18 18 18 18 18 17 16 16 17 17 17 17 16 17 18 18 18 20 20 19 18 16 13 10 11 13 9 5 3 3 9 12 10 8 8 7 6 4 3 3 3 3 2 1 1
Wind_Direction
173 167 165 165 164 167 167 162 158 153 147 145 142 139 139 138 137 134 133 131 127 124 122 122 124 131 141 139 135 138 139 134 133 129 124 125 129 128 121 115 115 118 120 116 115 111 105 104 107 105 104 108 108 106 106 104 101 97 96 94 94 93 91 90 87 84 82 82 81 84 81 76 72 68 64 61 66 68 70 70 70 67 62 60 57
168 166 165 163 163 166 166 163 159 155 149 147 143 141 140 140 138 136 135 132 127 125 122 120 120 125 136 141 138 138 141 137 135 130 126 130 130 126 118 116 119 122 125 118 114 110 106 107 109 107 105 105 103 102 102 101 98 93 88 85 83 82 83 86 88 87 84 85 85 88 87 81 78 73 68 65 66 67 69 71 70 68 65 63 60
162 165 164 160 163 166 165 164 160 156 153 149 146 143 142 143 141 139 138 133 129 126 122 117 116 118 124 136 137 136 140 138 136 131 130 135 128 121 118 119 120 121 123 118 113 109 108 110 112 114 110 105 103 102 100 97 93 87 80 76 74 73 74 76 83 90 89 89 89 92 93 88 82 75 72 71 70 67 67 68 69 68 66 64 63
162 165 162 159 163 165 165 165 161 159 156 151 147 145 145 146 144 143 141 136 132 127 121 116 116 117 117 126 132 136 139 139 137 135 134 134 124 118 120 122 122 119 118 116 114 112 111 114 116 116 111 107 108 106 100 94 89 82 77 74 75 76 80 80 78 86 93 95 95 94 93 90 85 77 72 74 75 73 69 67 68 69 68 65 64
163 164 160 160 165 165 165 165 163 161 157 152 149 147 146 149 148 146 143 138 134 128 122 117 116 118 120 122 128 134 139 140 140 139 135 135 131 126 126 126 125 121 118 116 115 114 113 118 120 116 111 109 109 103 96 90 86 83 78 75 80 89 103 107 93 85 91 95 96 94 92 89 87 80 73 74 77 77 73 69 68 68 67 65 65
164 163 160 161 166 166 167 165 164 163 158 154 152 149 149 153 152 148 145 141 135 130 123 119 118 118 122 124 128 132 136 141 143 141 136 136 138 133 130 127 124 121 120 118 116 116 115 119 122 120 117 110 105 98 94 90 85 82 75 71 80 94 107 118 114 100 93 93 95 95 94 92 88 82 75 75 75 76 73 71 69 66 65 63 62
165 162 161 164 166 167 168 166 166 164 159 157 155 151 152 158 156 152 148 141 135 131 126 121 120 121 123 125 128 131 133 137 141 141 137 137 137 134 131 125 123 123 122 119 117 115 116 121 122 122 118 110 103 98 94 90 82 76 71 66 75 92 102 113 115 109 100 94 95 95 95 94 89 81 75 74 72 71 69 67 66 64 64 63 62
165 164 164 166 166 167 170 167 167 164 160 160 157 154 156 161 160 154 149 141 136 133 130 124 121 124 126 128 131 133 138 140 143 143 140 142 138 134 132 128 126 125 121 120 119 118 119 121 121 121 116 109 105 98 92 85 77 73 70 65 72 94 104 111 112 107 102 96 95 95 95 93 87 80 74 71 68 67 65 64 62 60 61 64 65
166 167 167 167 166 168 171 168 169 164 162 162 159 157 159 163 163 156 148 143 140 138 134 127 124 127 128 132 134 136 142 145 146 145 146 150 146 139 134 131 129 127 125 125 126 126 124 120 119 119 114 110 104 94 86 78 75 74 70 63 68 98 112 114 110 104 100 97 94 93 92 90 86 81 75 71 68 67 63 62 62 61 59 59 61
168 169 169 168 165 170 173 170 170 165 164 165 162 160 161 164 165 159 150 144 144 142 137 130 128 131 132 134 135 137 142 146 148 146 143 148 152 149 141 134 134 135 133 129 127 129 126 121 119 116 114 109 100 90 81 73 74 73 67 61 65 99 117 113 108 102 97 95 93 92 91 88 85 81 75 71 67 66 61 58 58 59 59 55 55
170 170 170 168 164 172 176 171 169 166 167 167 164 162 162 164 167 162 152 148 148 144 138 137 134 133 136 139 141 141 142 145 147 148 142 144 152 157 154 144 139 140 136 130 128 130 125 120 117 115 115 107 97 87 78 71 73 72 65 63 71 102 118 111 105 100 96 95 94 95 94 89 85 80 75 71 66 64 59 54 52 52 52 49 51
172 172 171 168 166 173 175 172 169 168 169 168 165 164 164 165 168 163 155 153 153 146 142 147 143 137 138 143 148 148 146 146 148 150 148 151 156 162 165 157 147 144 140 135 132 131 125 120 118 118 116 106 97 86 77 72 74 75 71 71 82 106 118 111 104 99 97 97 96 96 95 90 85 81 77 71 64 61 56 53 52 53 54 51 51
171 173 171 168 169 174 174 172 170 170 171 169 168 167 167 167 167 163 159 158 158 150 147 155 152 143 139 142 152 154 152 151 153 152 150 158 162 166 170 165 156 149 144 139 136 133 126 122 120 121 116 106 98 86 79 74 77 81 80 83 92 110 119 112 103 98 98 98 97 96 92 86 83 83 78 69 62 57 52 51 52 58 61 60 56
170 174 171 169 172 174 176 172 169 172 172 171 171 170 170 168 166 164 163 163 161 154 153 163 156 150 145 141 152 159 159 157 158 155 154 164 168 172 175 172 161 153 149 144 141 136 129 125 125 125 116 106 96 86 80 77 80 83 89 95 100 111 116 110 102 96 97 98 98 94 89 84 80 80 74 65 59 53 49 48 52 57 60 62 60
172 173 168 170 172 174 179 173 169 173 173 173 174 173 171 169 169 167 167 167 164 158 160 169 159 154 155 148 151 160 165 165 164 162 162 168 173 178 178 175 167 159 156 152 146 138 133 131 130 128 117 105 94 85 80 78 83 84 92 104 107 109 108 102 96 93 94 96 95 91 89 84 78 74 66 60 54 49 46 48 53 55 57 62 61
174 171 168 172 172 173 178 174 173 175 175 176 176 175 173 172 173 170 170 169 167 165 165 172 162 157 163 164 161 160 166 170 170 169 170 174 178 182 180 175 171 167 162 156 149 140 138 136 136 130 117 105 91 83 81 79 86 88 92 106 114 111 105 96 89 88 89 89 88 86 84 83 80 73 62 57 55 52 48 52 57 59 59 61 60
173 170 170 173 172 173 176 176 177 177 178 180 179 178 176 175 174 171 171 172 171 171 171 174 167 165 173 178 173 163 164 169 172 170 171 177 183 183 180 176 173 171 164 158 152 145 144 141 141 133 116 104 89 81 82 81 86 93 95 104 115 116 109 97 85 84 85 87 86 80 75 73 75 70 61 61 57 52 53 58 62 64 65 65 65
172 171 173 173 173 175 177 177 178 179 180 183 183 181 179 176 174 173 174 175 173 175 178 178 177 180 184 186 179 167 165 167 169 167 166 173 180 178 179 179 175 171 166 161 156 151 149 147 145 135 116 102 86 80 84 84 88 95 99 103 111 117 114 96 84 84 87 89 84 75 69 67 71 69 61 63 61 57 63 67 69 72 72 72 70
173 174 174 174 174 176 177 178 180 181 181 184 186 183 180 179 175 174 176 177 175 178 181 183 189 192 191 189 186 175 168 166 165 162 162 167 173 173 176 179 182 176 167 165 162 157 154 150 147 134 116 99 84 83 86 89 92 96 99 102 105 112 112 92 83 84 87 84 78 72 69 67 68 67 65 67 70 71 74 75 77 77 75 74 71
174 178 176 176 177 177 178 180 183 184 183 185 186 185 183 180 176 176 177 177 177 180 185 189 194 196 195 192 194 191 177 169 168 163 160 164 173 177 176 182 199 190 171 170 167 162 157 153 151 136 115 97 87 89 92 95 97 97 98 100 102 106 104 92 87 85 85 79 73 70 69 69 65 67 73 76 79 79 80 80 80 78 75 74 72
177 180 179 179 180 180 181 182 186 186 185 184 186 188 184 182 180 178 177 177 179 182 189 195 194 192 193 192 199 204 190 176 172 168 165 169 179 180 175 184 203 196 178 176 172 167 163 160 158 144 118 103 101 98 98 103 102 99 99 102 102 100 95 88 88 88 87 79 72 72 74 75 76 78 82 83 84 82 80 79 78 76 73 70 68
181 183 183 183 182 183 183 184 187 188 186 185 188 189 185 186 184 179 178 179 181 185 191 196 196 193 191 195 203 207 197 181 173 172 173 180 184 181 180 189 198 192 184 181 176 173 171 170 170 164 142 120 116 109 107 110 107 104 104 107 104 99 94 86 91 93 89 81 76 79 81 84 85 84 83 83 83 80 80 79 77 75 70 63 54
183 184 186 186 184 185 187 188 188 189 188 186 189 190 187 191 188 181 182 183 183 188 194 198 200 197 193 198 204 206 199 185 177 175 178 182 184 184 187 192 190 186 186 184 182 181 179 180 179 172 154 126 119 115 114 114 113 111 108 111 103 96 96 97 102 99 91 86 85 86 87 88 87 84 82 80 77 76 76 75 76 74 62 49 34
185 185 187 187 186 188 189 190 190 189 189 188 190 191 190 195 192 186 188 188 186 190 197 200 202 202 199 200 201 201 197 187 178 175 178 177 175 181 184 183 181 181 182 183 185 186 184 184 178 172 156 124 117 112 114 116 122 124 115 117 108 99 104 109 108 103 99 94 92 93 92 91 87 85 81 75 72 72 70 71 71 63 46 28 19
186 185 188 188 188 190 189 191 193 191 190 191 192 193 192 196 197 193 192 191 189 191 193 195 194 193 190 190 194 195 190 186 180 177 178 174 169 175 175 172 173 174 176 180 183 182 182 182 172 161 143 120 114 108 112 120 130 137 131 125 117 114 118 117 113 108 107 104 101 101 99 96 90 84 74 67 66 66 74 76 54 35 25 17 22
186 188 190 190 191 191 190 191 194 193 193 193 193 194 193 197 200 196 193 193 193 191 188 185 180 177 174 174 183 186 182 181 180 178 175 169 168 171 168 164 164 168 172 173 175 175 177 179 164 142 121 114 111 107 114 124 131 140 139 133 129 130 128 124 119 114 112 111 111 109 104 100 90 76 60 56 60 67 76 66 23 17 22 28 42
189 193 193 191 192 192 191 192 193 194 195 195 195 194 195 199 199 195 193 194 195 192 184 176 171 169 166 166 172 176 174 174 176 175 171 167 166 166 163 162 162 167 169 167 168 170 174 176 162 141 118 102 106 110 118 126 132 138 142 140 140 139 133 128 121 116 114 113 111 104 94 86 75 68 59 58 65 75 75 38 15 32 45 52 60
193 196 194 192 192 193 192 193 193 194 195 196 197 195 197 200 197 195 195 195 197 192 180 172 170 169 166 165 168 170 168 166 168 169 171 170 166 168 168 166 166 169 170 168 166 165 178 184 178 175 146 83 106 125 132 135 136 139 147 148 148 147 138 129 120 114 112 106 100 88 74 69 67 73 78 76 75 76 69 55 56 65 68 69 71
196 197 196 194 193 193 193 194 194 194 195 197 198 197 199 199 196 195 195 195 196 188 180 175 174 173 170 170 172 175 172 166 164 165 169 170 171 177 177 175 175 178 178 175 174 174 195 215 212 210 198 159 137 147 153 160 158 153 158 158 154 152 142 133 124 118 112 99 91 83 72 69 72 78 85 87 83 77 73 72 75 77 77 74 73
199 199 198 196 193 193 193 195 195 194 196 197 198 199 199 198 195 194 194 195 193 185 182 181 180 179 177 176 180 184 183 179 177 174 172 170 177 187 188 188 188 189 190 190 192 202 233 248 252 249 235 208 170 165 170 180 177 169 169 166 159 154 145 138 131 123 113 98 87 83 77 73 75 76 81 86 84 83 81 81 82 83 81 76 72
200 199 200 198 195 193 193 195 195 195 196 198 199 200 200 197 194 194 195 195 191 185 185 186 186 185 183 184 189 192 194 196 197 197 193 187 191 199 203 204 202 202 206 209 216 237 254 263 268 254 238 210 181 176 183 192 186 176 174 170 161 154 148 143 139 132 118 102 88 84 83 76 72 71 79 86 82 82 85 86 85 84 83 81 78
200 200 201 200 197 195 194 195 195 195 197 199 199 200 201 197 195 196 197 195 191 187 186 188 189 188 190 196 199 200 203 207 209 211 212 212 216 223 230 230 228 227 230 236 247 257 262 264 255 235 224 202 183 183 189 196 191 179 174 170 162 156 151 147 144 136 121 107 95 83 80 77 70 71 83 90 89 89 89 89 87 86 85 85 84
201 202 202 200 200 197 194 195 196 195 198 201 201 201 201 197 197 198 198 196 193 190 189 190 191 191 197 205 209 209 211 217 217 217 221 228 235 244 255 256 250 247 248 251 252 252 249 246 228 209 203 185 177 184 185 186 186 178 172 168 163 158 154 153 152 143 128 114 104 91 77 75 76 84 94 96 100 100 96 93 91 90 89 87 85
199 201 202 201 200 197 195 195 196 197 199 203 203 203 201 198 199 200 200 199 196 194 192 193 195 197 202 209 213 215 220 223 223 222 225 239 249 255 264 265 257 252 250 244 236 230 224 222 212 197 189 178 178 182 183 181 179 174 170 168 165 161 160 160 155 148 140 125 110 97 83 78 82 93 99 99 102 105 101 96 95 93 91 89 85
198 199 202 203 201 198 196 195 197 199 200 204 206 206 204 200 199 201 203 203 200 198 196 197 199 200 204 210 215 219 226 229 228 227 233 248 258 262 266 262 254 246 235 223 216 213 207 204 203 198 184 176 180 175 178 181 177 173 170 168 167 164 164 163 156 147 140 127 112 97 86 83 86 91 97 99 101 103 103 100 97 94 89 87 85
197 198 200 202 202 200 198 196 197 200 202 207 209 208 206 203 201 204 204 204 203 199 197 199 201 203 207 211 216 222 229 232 232 231 239 251 256 260 258 252 249 239 221 209 206 205 203 196 193 200 189 174 175 167 166 176 175 171 168 168 168 167 166 165 161 152 138 123 109 93 84 83 85 88 90 94 99 102 104 105 103 98 91 86 84
198 198 199 200 202 202 200 198 198 200 203 207 209 207 207 206 204 205 205 206 204 200 199 201 203 207 210 214 217 222 229 232 233 236 241 246 247 247 244 243 240 228 211 203 202 202 203 196 186 190 194 180 172 163 158 166 170 166 164 168 168 167 168 169 167 158 142 127 111 93 85 84 85 86 86 88 94 103 109 109 110 108 101 92 84
199 200 201 200 202 203 202 202 200 201 203 207 208 205 204 207 207 207 207 207 205 202 202 205 207 211 215 219 220 222 226 230 234 239 240 239 237 235 235 235 228 215 203 198 199 199 197 197 188 181 188 186 174 166 160 161 163 162 163 166 168 168 169 168 165 157 145 132 115 99 90 88 87 84 84 86 86 93 102 107 111 109 100 91 83
202 202 202 201 201 202 203 203 202 202 204 207 207 205 203 206 208 208 208 208 206 205 206 208 211 216 221 224 225 223 223 228 234 239 239 236 233 228 224 224 218 207 198 194 195 196 193 194 193 183 178 177 176 171 164 159 155 157 161 162 165 169 167 164 165 158 149 139 122 107 97 95 94 87 84 85 84 85 90 94 99 99 95 89 82
205 204 203 202 201 200 201 203 204 203 203 205 206 205 204 205 208 208 209 209 208 208 210 213 216 222 226 227 226 223 223 226 232 238 238 236 233 224 217 213 211 203 197 196 196 197 196 192 191 188 177 166 166 168 167 161 149 144 151 156 161 167 166 167 167 161 155 147 133 120 111 107 104 96 89 88 87 86 87 89 91 94 93 89 82
205 206 205 203 202 200 200 202 204 204 204 205 205 205 203 203 205 207 208 208 208 209 212 216 220 225 227 226 225 223 223 224 228 236 238 235 228 218 213 208 204 201 199 201 200 196 196 193 188 188 182 168 161 162 166 162 146 133 135 144 153 164 172 174 171 165 161 157 149 140 126 122 118 113 106 96 92 91 90 91 92 95 94 89 83
200 205 206 204 203 202 202 202 203 205 206 207 206 207 206 203 203 205 206 207 209 211 213 216 220 225 225 223 223 223 222 222 226 234 237 234 225 217 213 206 200 198 198 200 200 194 190 192 188 183 181 175 167 165 166 162 150 143 142 132 126 147 167 175 174 171 169 168 165 161 146 134 133 136 131 112 100 91 91 99 100 99 95 87 80
197 201 206 206 204 203 203 203 203 204 207 208 209 210 209 207 206 207 206 207 210 213 216 218 220 224 224 221 222 222 221 221 225 233 236 234 227 220 213 206 200 197 197 198 198 194 188 191 193 187 181 177 173 173 174 174 163 153 145 134 131 138 152 177 178 179 181 181 179 176 170 157 152 160 160 139 114 85 90 109 108 102 92 79 71
194 199 204 206 205 205 205 204 203 204 206 208 210 211 211 210 210 211 211 210 212 214 218 221 221 221 220 219 219 220 220 221 225 232 235 234 228 221 214 206 201 199 201 202 200 199 196 195 197 198 190 181 179 181 184 187 180 165 146 108 138 143 193 196 176 180 188 189 190 190 186 183 183 185 183 172 140 65 95 121 115 103 86 66 50
194 200 204 205 205 205 205 204 203 205 206 207 208 209 209 209 208 208 208 208 210 210 210 211 211 213 214 215 216 217 219 222 225 230 234 234 226 220 214 206 203 202 205 208 207 205 204 204 203 204 203 196 191 189 190 194 193 190 183 136 136 162 234 173 158 178 194 191 194 198 197 198 204 204 190 182 175 59 108 133 132 113 79 48 25
200 203 205 206 206 205 205 204 204 205 207 207 206 206 206 206 203 199 197 197 200 202 202 202 202 204 209 214 215 217 219 221 224 228 232 232 225 219 213 207 205 206 208 211 211 209 209 211 210 210 212 212 207 197 195 198 197 200 203 186 184 206 156 149 144 178 200 198 200 200 203 206 213 218 200 185 176 96 126 145 154 153 61 10 8
205 206 205 205 205 205 204 204 204 205 206 206 205 204 204 205 204 201 200 198 200 202 202 203 203 204 208 214 215 216 218 220 222 226 230 229 223 218 213 209 209 211 213 214 214 214 216 218 219 220 219 218 215 207 202 202 200 204 211 211 211 194 157 155 163 162 177 211 212 204 207 209 214 220 211 200 196 148 154 163 171 202 318 350 7
208 204 202 204 205 205 204 203 204 205 205 205 204 203 203 204 205 205 204 204 205 204 201 203 205 206 209 212 213 215 217 219 220 224 227 226 221 216 213 210 210 214 219 221 222 222 224 226 226 227 225 222 221 219 213 207 204 206 209 213 219 202 185 186 197 184 146 183 209 207 209 209 214 219 217 216 210 197 192 187 188 272 332 4 52
209 203 202 204 204 203 202 202 203 203 204 204 204 204 204 205 205 205 206 206 206 205 201 201 204 205 207 209 211 215 216 216 218 222 224 222 219 215 212 212 213 219 224 229 232 233 233 233 233 231 228 225 225 226 223 216 213 212 210 210 208 195 195 202 200 190 167 155 187 206 197 198 212 218 215 217 212 198 191 198 237 298 21 98 122
209 205 205 204 202 201 200 201 202 202 202 204 204 204 204 205 206 206 205 204 203 200 198 199 202 202 205 207 210 213 213 213 216 219 219 217 215 213 213 215 218 225 231 237 241 241 239 238 237 236 232 229 227 226 227 227 225 221 218 212 203 192 189 186 188 190 179 159 164 190 187 186 195 203 207 212 208 196 190 198 221 166 132 128 119
206 205 204 203 201 200 200 201 202 201 201 204 204 204 205 206 207 207 205 203 198 194 192 195 198 199 201 205 209 211 210 211 214 215 214 212 212 212 214 217 221 228 237 245 249 247 244 238 234 232 230 229 228 226 227 229 229 225 223 221 217 215 213 213 210 202 194 180 164 172 186 185 179 176 186 197 191 172 165 164 158 151 136 124 29